When you browse on this site, cookies collect data to enhance your experience and personalize the content and advertising you see.
Visit our Privacy Policy to learn more. By continuing to use the site, you agree to this use of cookies and data.
  • In Germany
  • List of Countries
  • For 7 days
  • Water Temperature
  • Weather Map
  • Weather Widgets
  • user-avatar
    Login

    Hourly Weather Stafford

    Today, 23 September, Monday

    Time Temperature Precipitation Wind Pressure Humidity
    00:00 +12°C° 0 mm 3 mps 746 mmHg 97%
    01:00 +12°C° 0 mm 3 mps 746 mmHg 97%
    02:00 +12°C° 0 mm 3 mps 746 mmHg 96%
    03:00 +12°C° 0 mm 3 mps 746 mmHg 96%
    04:00 +11°C° 0 mm 3 mps 746 mmHg 95%
    05:00 +11°C° 0 mm 3 mps 747 mmHg 94%
    06:00 +11°C° 0 mm 3 mps 747 mmHg 95%
    07:00 +12°C° 0 mm 3 mps 748 mmHg 90%
    08:00 +13°C° 0 mm 4 mps 748 mmHg 86%
    09:00 +14°C° 0 mm 4 mps 748 mmHg 81%
    10:00 +15°C° 0 mm 5 mps 748 mmHg 76%
    11:00 +16°C° 0 mm 5 mps 748 mmHg 72%
    12:00 +17°C° 0 mm 6 mps 748 mmHg 68%
    13:00 +17°C° 0 mm 6 mps 748 mmHg 67%
    14:00 +19°C° 0 mm 6 mps 747 mmHg 67%
    15:00 +19°C° 0 mm 6 mps 747 mmHg 67%
    16:00 +17°C° 0.7 mm 6 mps 746 mmHg 75%
    17:00 +15°C° 0.7 mm 6 mps 746 mmHg 83%
    18:00 +14°C° 0.7 mm 6 mps 746 mmHg 91%
    19:00 +14°C° 0.1 mm 6 mps 746 mmHg 91%
    20:00 +14°C° 0.1 mm 6 mps 746 mmHg 92%
    21:00 +15°C° 0.1 mm 5 mps 745 mmHg 92%
    22:00 +15°C° 0.2 mm 5 mps 745 mmHg 93%
    23:00 +15°C° 0.2 mm 5 mps 745 mmHg 94%

    Tomorrow, 24 September, Tuesday

    Time Temperature Precipitation Wind Pressure Humidity
    00:00 +15°C° 0.2 mm 4 mps 745 mmHg 95%
    01:00 +15°C° 0 mm 4 mps 744 mmHg 95%
    02:00 +15°C° 0 mm 4 mps 744 mmHg 95%
    03:00 +15°C° 0 mm 4 mps 743 mmHg 95%
    04:00 +15°C° 0.5 mm 4 mps 743 mmHg 96%
    05:00 +15°C° 0.5 mm 4 mps 742 mmHg 96%
    06:00 +14°C° 0.5 mm 3 mps 742 mmHg 96%
    07:00 +15°C° 2.7 mm 4 mps 741 mmHg 95%
    08:00 +15°C° 2.7 mm 4 mps 741 mmHg 94%
    09:00 +16°C° 2.7 mm 5 mps 741 mmHg 93%
    10:00 +15°C° 2.2 mm 4 mps 740 mmHg 93%
    11:00 +15°C° 2.2 mm 4 mps 740 mmHg 93%
    12:00 +16°C° 2.2 mm 3 mps 740 mmHg 93%
    13:00 +17°C° 0.8 mm 4 mps 740 mmHg 89%
    14:00 +17°C° 0.8 mm 4 mps 740 mmHg 85%
    15:00 +17°C° 0.8 mm 5 mps 740 mmHg 80%
    16:00 +17°C° 0 mm 4 mps 740 mmHg 82%
    17:00 +15°C° 0 mm 4 mps 740 mmHg 84%
    18:00 +14°C° 0 mm 4 mps 740 mmHg 86%
    19:00 +14°C° 0.1 mm 4 mps 740 mmHg 88%
    20:00 +13°C° 0.1 mm 4 mps 740 mmHg 90%
    21:00 +13°C° 0.1 mm 4 mps 740 mmHg 92%
    22:00 +13°C° 0.4 mm 4 mps 740 mmHg 93%
    23:00 +13°C° 0.4 mm 4 mps 739 mmHg 94%

    Day after tomorrow, 25 September, Wednesday

    Time Temperature Precipitation Wind Pressure Humidity
    00:00 +13°C° 0.4 mm 5 mps 739 mmHg 95%
    01:00 +13°C° 0.1 mm 4 mps 739 mmHg 95%
    02:00 +13°C° 0.1 mm 3 mps 739 mmHg 95%
    03:00 +14°C° 0.1 mm 2 mps 738 mmHg 96%
    04:00 +14°C° 0 mm 2 mps 738 mmHg 96%
    05:00 +14°C° 0 mm 1 mps 739 mmHg 96%
    06:00 +13°C° 0 mm 1 mps 739 mmHg 96%
    07:00 +14°C° 0 mm 1 mps 739 mmHg 94%
    08:00 +15°C° 0 mm 1 mps 740 mmHg 91%
    09:00 +16°C° 0 mm 2 mps 740 mmHg 88%
    10:00 +16°C° 0 mm 2 mps 741 mmHg 88%
    11:00 +16°C° 0 mm 3 mps 741 mmHg 87%
    12:00 +17°C° 0 mm 4 mps 742 mmHg 86%
    13:00 +17°C° 0 mm 3 mps 742 mmHg 83%
    14:00 +18°C° 0 mm 3 mps 742 mmHg 80%
    15:00 +18°C° 0 mm 3 mps 742 mmHg 77%
    16:00 +17°C° 0.1 mm 2 mps 743 mmHg 81%
    17:00 +16°C° 0.1 mm 2 mps 743 mmHg 84%
    18:00 +15°C° 0.1 mm 2 mps 743 mmHg 88%
    19:00 +15°C° 0 mm 2 mps 743 mmHg 89%
    20:00 +14°C° 0 mm 2 mps 743 mmHg 91%
    21:00 +14°C° 0 mm 2 mps 743 mmHg 93%
    22:00 +13°C° 0.1 mm 3 mps 743 mmHg 93%
    23:00 +14°C° 0.1 mm 4 mps 743 mmHg 94%

    26 September, Thursday

    Time Temperature Precipitation Wind Pressure Humidity
    00:00 +14°C° 0.1 mm 4 mps 742 mmHg 94%
    01:00 +14°C° 0.2 mm 5 mps 742 mmHg 94%
    02:00 +15°C° 0.2 mm 5 mps 742 mmHg 94%
    03:00 +16°C° 0.2 mm 5 mps 742 mmHg 93%
    04:00 +15°C° 0.1 mm 5 mps 742 mmHg 93%
    05:00 +15°C° 0.1 mm 5 mps 743 mmHg 92%
    06:00 +14°C° 0.1 mm 4 mps 743 mmHg 92%
    07:00 +14°C° 0.2 mm 5 mps 743 mmHg 88%
    08:00 +14°C° 0.2 mm 6 mps 743 mmHg 83%
    09:00 +15°C° 0.2 mm 6 mps 744 mmHg 78%
    10:00 +15°C° 0 mm 6 mps 744 mmHg 74%
    11:00 +16°C° 0 mm 6 mps 744 mmHg 70%
    12:00 +17°C° 0 mm 6 mps 744 mmHg 66%
    13:00 +16°C° 0.2 mm 6 mps 744 mmHg 67%
    14:00 +16°C° 0.2 mm 6 mps 744 mmHg 69%
    15:00 +16°C° 0.2 mm 6 mps 744 mmHg 70%
    16:00 +15°C° 0.1 mm 5 mps 744 mmHg 73%
    17:00 +14°C° 0.1 mm 5 mps 744 mmHg 77%
    18:00 +13°C° 0.1 mm 4 mps 744 mmHg 80%
    19:00 +12°C° 0 mm 4 mps 745 mmHg 82%
    20:00 +11°C° 0 mm 4 mps 745 mmHg 83%
    21:00 +11°C° 0 mm 4 mps 745 mmHg 85%
    22:00 +11°C° 0 mm 4 mps 745 mmHg 86%
    23:00 +10°C° 0 mm 5 mps 745 mmHg 86%

    27 September, Friday

    Time Temperature Precipitation Wind Pressure Humidity
    00:00 +10°C° 0 mm 5 mps 745 mmHg 86%
    01:00 +10°C° 0 mm 5 mps 745 mmHg 86%
    02:00 +10°C° 0 mm 5 mps 745 mmHg 85%
    03:00 +10°C° 0 mm 5 mps 745 mmHg 85%
    04:00 +10°C° 0 mm 5 mps 744 mmHg 86%
    05:00 +10°C° 0 mm 5 mps 744 mmHg 86%
    06:00 +10°C° 0 mm 5 mps 744 mmHg 87%
    07:00 +11°C° 0 mm 6 mps 744 mmHg 84%
    08:00 +12°C° 0 mm 7 mps 744 mmHg 81%
    09:00 +13°C° 0 mm 8 mps 744 mmHg 78%
    10:00 +14°C° 0.3 mm 7 mps 744 mmHg 77%
    11:00 +15°C° 0.3 mm 7 mps 744 mmHg 75%
    12:00 +15°C° 0.3 mm 7 mps 744 mmHg 74%
    13:00 +14°C° 0.3 mm 7 mps 744 mmHg 76%
    14:00 +14°C° 0.3 mm 7 mps 743 mmHg 79%
    15:00 +12°C° 0.3 mm 7 mps 743 mmHg 81%
    16:00 +13°C° 0.1 mm 6 mps 743 mmHg 81%
    17:00 +13°C° 0.1 mm 6 mps 743 mmHg 81%
    18:00 +11°C° 0.1 mm 6 mps 743 mmHg 81%
    19:00 +11°C° 0 mm 6 mps 744 mmHg 82%
    20:00 +11°C° 0 mm 6 mps 744 mmHg 84%
    21:00 +10°C° 0 mm 6 mps 744 mmHg 85%
    22:00 +10°C° 0 mm 6 mps 744 mmHg 86%
    23:00 +10°C° 0 mm 6 mps 744 mmHg 87%

    28 September, Saturday

    Time Temperature Precipitation Wind Pressure Humidity
    00:00 +9°C° 0 mm 5 mps 744 mmHg 88%
    01:00 +9°C° 0 mm 6 mps 744 mmHg 87%
    02:00 +9°C° 0 mm 6 mps 744 mmHg 86%
    03:00 +9°C° 0 mm 6 mps 744 mmHg 85%
    04:00 +10°C° 0.1 mm 6 mps 744 mmHg 85%
    05:00 +10°C° 0.1 mm 6 mps 744 mmHg 85%
    06:00 +11°C° 0.1 mm 7 mps 744 mmHg 84%
    07:00 +11°C° 0.1 mm 6 mps 745 mmHg 84%
    08:00 +11°C° 0.1 mm 6 mps 745 mmHg 83%
    09:00 +13°C° 0.1 mm 6 mps 746 mmHg 83%
    10:00 +12°C° 0.4 mm 7 mps 746 mmHg 81%
    11:00 +14°C° 0.4 mm 7 mps 746 mmHg 79%
    12:00 +14°C° 0.4 mm 7 mps 746 mmHg 77%
    13:00 +15°C° 0.3 mm 7 mps 746 mmHg 76%
    14:00 +15°C° 0.3 mm 7 mps 746 mmHg 75%
    15:00 +15°C° 0.3 mm 7 mps 746 mmHg 74%
    16:00 +14°C° 0 mm 6 mps 746 mmHg 77%
    17:00 +12°C° 0 mm 5 mps 746 mmHg 80%
    18:00 +11°C° 0 mm 4 mps 746 mmHg 83%
    19:00 +11°C° 0 mm 4 mps 747 mmHg 86%
    20:00 +10°C° 0 mm 4 mps 747 mmHg 88%
    21:00 +10°C° 0 mm 4 mps 747 mmHg 91%
    22:00 +10°C° 0 mm 3 mps 747 mmHg 91%
    23:00 +9°C° 0 mm 3 mps 747 mmHg 92%
    Show more